User: anonymous
Location: Broad Creek
(39.7000°N, 76.2570°W)
Time: 05:18:19
(UTC-04:00)
Language:

ETS-7 - Orbit

View from above orbital plane
View from above orbital plane
View from above satellite
View from above satellite

Ground track
Ground track

The orbit data is extracted from the following two-line orbital elements,

1 25064U 97074B   14201.70229322  .00006104  00000-0  10762-3 0  2071
2 25064 034.9643 048.8692 0004060 000.6042 061.0491 15.49656241926378
Epoch (UTC): 20 July 2014 16:51:18
Eccentricity: 0.0004060
inclination: 34.9643°
perigee height: 415 km
apogee height: 420 km
right ascension of ascending node: 48.8692°
argument of perigee: 0.6042°
revolutions per day: 15.49656241
mean anomaly at epoch: 61.0491°
orbit number at epoch: 92637

The dashed part of the orbit path shows where the satellite is in the earth's shadow,  

DLR